Laurent Verva

Laurent Verva

Statistiques 2026

  • Courses courues : 42
  • Nb de victoires : -
  • Nb de places : 1
  • Écart gagnant : 143
  • Réussite à la gagne : -
  • Réussite à la place : 2%
Musique : 0a 8a 4a 6a 6a 0a 5a 5a Da 2a 9a 6a 5a Da 6a 0a 7a 4a
DateRangCatégorieAlloc.Dist.HippodromeChevalRed. KmSpé.
16/11/17 8 Trot 22 000€ 2 600m Reims Calba du Pont 1'15"9 Attelé
16/11/17 5 Trot 20 000€ 2 600m Reims Daisy de la Folie 1'17"9 Attelé
16/11/17 4 Trot 20 000€ 2 600m Reims Didji Boy 1'17"7 Attelé
16/11/17 7 Trot 22 000€ 2 600m Reims Eros de Godrel 1'18"1 Attelé
16/11/17 0 Trot 22 000€ 2 600m Reims Esther du Ganep Attelé
26/11/17 3 Trot 15 000€ 2 600m Reims Elisee du Pont 1'17"2 Attelé
26/11/17 3 Trot 16 000€ 2 550m Reims Dauphine d'Alci 1'16"2 Attelé
26/11/17 D Trot 15 000€ 2 600m Reims Elza Piquenard Attelé
11/03/18 8 Trot 14 000€ 2 600m Reims Elite de Bellande 1'21"1 Attelé
25/03/18 0 Trot 21 000€ 2 600m Reims Aristo de Chanjac Attelé
25/03/18 D Trot 20 000€ 2 600m Reims Eliseo Dairpet Attelé
25/03/18 D Trot 19 000€ 2 600m Reims Elektra Syga Attelé
25/03/18 5 Trot 19 000€ 2 600m Reims Etoile Dubonheur 1'17"7 Attelé
25/03/18 5 Trot 14 000€ 2 550m Reims Ariaka 1'17"2 Attelé
29/03/18 6 Trot 20 000€ 2 600m Reims Ethano de Bouteau 1'17"4 Attelé
01/04/18 9 Trot 25 000€ 2 600m Reims Valerko Sprint 1'15"4 Attelé lire

N'a pu que figurer au sein du peloton.

01/04/18 8 Trot 19 000€ 2 600m Reims Fayette Tilly 1'18"3 Attelé lire

Après avoir figuré, a nettement faibli pour finir.

01/04/18 5 Trot 21 000€ 2 600m Reims Cubana 1'16"3 Attelé lire

Après avoir bien figuré, a conclu fort honorablement.

09/04/18 D Trot 30 000€ 2 600m Reims Viva Well Attelé
09/04/18 5 Trot 21 000€ 2 600m Reims Au Temps Dubonheur 1'14"3 Attelé
09/04/18 4 Trot 20 000€ 2 600m Reims Etoile Dubonheur 1'16"9 Attelé
16/04/18 D Trot 21 000€ 2 600m Reims Ethano de Bouteau Attelé
27/05/18 7 Trot 20 000€ 2 600m Reims Etoile Dubonheur 1'16"3 Attelé
27/05/18 4 Trot 20 000€ 2 550m Reims Dryade des Salines 1'16"2 Attelé
27/05/18 3 Trot 20 000€ 2 600m Reims Ethano de Bouteau 1'16"5 Attelé
09/06/18 0 Trot 26 000€ 2 575m Reims Valerko Sprint Attelé
09/06/18 D Trot 16 000€ 2 600m Reims Elixir Neslois Attelé
09/06/18 5 Trot 13 000€ 2 600m Reims Farca Sly 1'18"5 Attelé
09/06/18 1 Trot 16 000€ 2 575m Reims Diego du Houlet 1'15"2 Attelé
20/06/18 8 Trot 22 000€ 2 550m Reims Elliot d'Alci 1'15"3 Attelé
20/06/18 0 Trot 22 000€ 2 550m Reims Dryade des Salines Attelé
13/09/18 6 Trot 20 000€ 2 600m Reims Dollar de l'Iton 1'15"5 Attelé
13/09/18 6 Trot 20 000€ 2 600m Reims Elisee du Pont 1'16"4 Attelé
13/09/18 0 Trot 22 000€ 2 600m Reims Frivole d'Arbaz Attelé
11/10/18 D Trot 32 000€ 2 550m Reims Aladin Pierji Attelé
11/10/18 4 Trot 24 000€ 2 575m Reims Au Temps Dubonheur 1'14"3 Attelé
11/10/18 D Trot 20 000€ 2 600m Reims Elliot d'Alci Attelé
31/10/18 1 Trot 20 000€ 2 600m Reims Ercule de Navary 1'15"8 Attelé
31/10/18 7 Trot 19 000€ 2 600m Reims Etoile Dubonheur 1'16"6 Attelé
31/10/18 3 Trot 20 000€ 2 600m Reims Filea de la Besvre 1'16"7 Attelé
15/11/18 6 Trot 22 000€ 2 600m Reims Fire Bird 1'17"4 Attelé
15/11/18 0 Trot 19 000€ 2 600m Reims Ercule de Navary Attelé
15/11/18 0 Trot 22 000€ 2 600m Reims Flamme Mencourt Attelé
25/11/18 4 Trot 13 000€ 2 600m Reims Farca Sly 1'17"9 Attelé
25/11/18 D Trot 13 000€ 2 600m Reims Flashback Syga Attelé
25/11/18 3 Trot 15 000€ 2 575m Reims Emile de Jal 1'17"1 Attelé
25/11/18 4 Trot 15 000€ 2 575m Reims Esteve le Fol 1'16"7 Attelé
25/11/18 7 Trot 20 000€ 2 575m Reims Bilingue d'Alci 1'15"4 Attelé
17/06/15 3 Trot 22 000€ 2 600m Reims Aline de Touchyvon 1'12"6 Attelé lire

Attentiste en queue de peloton, a progressé au dernier passage en face, soutenant bien son effort jusqu'au bout.

18/06/15 2 Trot 20 000€ 2 600m Reims Chiquito d'Arc 1'17"7 Attelé